Flag for U.S.A. Weather past 2 weeks in Butte, Montana, U.S.A.

Now
55 °F

Sunny.


Feels Like: 54 °F
Forecast: 41 / 53 °F
Wind: 6 mph from Northwest

Location: Mooney Airport

Current Time: May 27, 2015 at 2:10:18 PM

Latest Report: May 27, 2015 at 12:53 PM


Visibility: 10 mi

Pressure: 29.96 "Hg

Humidity: 59%

Dew point: 41 °F

Location of ButteLocation

Historic Weather in Butte — Graph

°F

Butte temperature yesterday

Maximum temperature yesterday: 66 °F (at 5:53 PM)
Minimum temperature yesterday: 45 °F (at 6:53 AM)
Average temperature yesterday: 54 °F

Past Weeks' High & Low Weather Summary

 TemperatureHumidityPressure
High66 °F (May 25, 2:53 PM)93% (May 13, 2:53 AM)30.31 "Hg (May 13, 2:53 AM)
Low34 °F (May 18, 4:02 AM)25% (May 25, 1:53 PM)29.59 "Hg (May 16, 2:53 AM)
Average48 °F69%29.94 "Hg
* Reported May 12 12:53 PM — May 27 12:53 PM, Butte, Weather by CustomWeather, © 2015

Note: Actual official high and low records may vary slightly from our data, if they occured in-between our weather recording intervals... More about our weather records

Advertising

Butte weather history for previous 24 hours

 ConditionsComfort  
Time TempWeatherWind HumidityBarometerVisibility
12:53 PM
Wed, May 27
55 °FSunny.6 mph59%29.96 "Hg10 mi
11:53 AM50 °FBroken clouds.7 mph77%29.99 "Hg10 mi
10:53 AM55 °FThundershowers. Passing clouds.6 mph62%29.96 "Hg10 mi
9:53 AM52 °FPartly sunny.No wind72%29.99 "Hg10 mi
8:53 AM48 °FMore clouds than sun.3 mph83%30.01 "Hg10 mi
7:53 AM47 °FOvercast.No wind86%29.99 "Hg10 mi
6:53 AM46 °FMostly cloudy.No wind89%29.98 "Hg10 mi
6:03 AM46 °FOvercast.No wind86%30.07 "Hg10 mi
5:53 AM45 °FMostly cloudy.3 mph90%29.96 "Hg10 mi
4:53 AM46 °FLight rain. Mostly cloudy.No wind89%29.96 "Hg9 mi
3:53 AM47 °FMostly cloudy.No wind83%29.96 "Hg10 mi
2:53 AM47 °FMostly cloudy.3 mph83%29.96 "Hg10 mi
1:53 AM48 °FLight rain. Mostly cloudy.3 mph83%29.96 "Hg10 mi
12:53 AM49 °FOvercast.3 mph74%29.96 "Hg10 mi
11:53 PM
Tue, May 26
50 °FOvercast.12 mph71%29.96 "Hg10 mi
10:53 PM50 °FPassing clouds.10 mph71%29.94 "Hg10 mi
9:53 PM50 °FLight rain. More clouds than sun.9 mph77%29.97 "Hg10 mi
8:53 PM52 °FMore clouds than sun.14 mph66%29.93 "Hg10 mi
7:53 PM55 °FOvercast.7 mph64%29.89 "Hg10 mi
6:53 PM61 °FOvercast.14 mph39%29.85 "Hg10 mi
5:53 PM66 °FSunny.8 mph27%29.83 "Hg10 mi
4:53 PM64 °FSunny.5 mph30%29.85 "Hg10 mi
3:53 PM65 °FSunny.5 mph27%29.86 "Hg10 mi
2:53 PM65 °FOvercast.6 mph31%29.88 "Hg10 mi
Weather by CustomWeather, © 2015

See weather overviewHow to use our weather pages